FW0954 Weather Reports


time (UTC)temp
F
wind
direction
speed
knots
gust
knots
rain 1hr
in
rain 24hr
in
rain mn
in
humidity
%
barometer
mb
20260509125002 70 273 0.0 3.5 0.00 0.00 0.00 96 1010.1
20260509124503 70 275 0.0 2.6 0.00 0.00 0.00 96 1009.9
20260509124002 69 274 0.0 2.6 0.00 0.00 0.00 96 1010.0
20260509123503 69 0 0.0 0.0 0.00 0.00 0.00 96 1010.1
20260509123002 69 0 0.0 0.0 0.00 0.00 0.00 95 1010.0
20260509122503 68 0 0.0 0.0 0.00 0.00 0.00 95 1010.0
20260509122002 68 0 0.0 0.0 0.00 0.00 0.00 95 1010.1
20260509121503 68 0 0.0 0.0 0.00 0.00 0.00 95 1010.0
20260509121002 68 0 0.0 0.0 0.00 0.00 0.00 95 1009.9
20260509120502 68 0 0.0 0.0 0.00 0.00 0.00 94 1009.9
20260509120003 69 0 0.0 0.0 0.00 0.00 0.00 94 1009.8
20260509115502 69 0 0.0 0.0 0.00 0.00 0.00 94 1009.7
20260509115003 69 0 0.0 0.0 0.00 0.00 0.00 94 1009.7
20260509114503 69 0 0.0 0.0 0.00 0.00 0.00 94 1009.5
20260509113503 70 183 0.0 1.7 0.00 0.00 0.00 94 1009.5
20260509113003 70 183 0.0 1.7 0.00 0.00 0.00 94 1009.4
20260509112503 70 179 0.0 1.7 0.00 0.00 0.00 94 1009.3
20260509112003 70 182 0.0 1.7 0.00 0.00 0.00 94 1009.3
20260509111503 70 183 0.0 1.7 0.00 0.00 0.00 94 1009.2
20260509111002 70 187 0.0 1.7 0.00 0.00 0.00 94 1009.2
20260509110503 70 190 0.0 1.7 0.00 0.00 0.00 94 1009.3
20260509110003 70 0 0.0 0.0 0.00 0.00 0.00 94 1009.4
20260509105503 70 0 0.0 0.0 0.00 0.00 0.00 94 1009.3
20260509105003 70 0 0.0 0.0 0.00 0.00 0.00 94 1009.3
20260509104503 70 0 0.0 0.0 0.00 0.00 0.00 94 1009.3
20260509104003 70 0 0.0 0.0 0.00 0.00 0.00 94 1009.2
20260509103503 70 0 0.0 0.0 0.00 0.00 0.00 94 1009.2
20260509102502 70 0 0.0 0.0 0.00 0.00 0.00 94 1009.1
20260509102003 70 0 0.0 0.0 0.00 0.00 0.00 94 1009.1
20260509101502 70 274 0.0 0.9 0.00 0.00 0.00 95 1008.9
20260509101003 70 274 0.0 0.9 0.00 0.00 0.00 95 1008.8
20260509100503 70 274 0.0 0.9 0.00 0.00 0.00 95 1008.7
20260509100004 70 274 0.0 0.9 0.00 0.00 0.00 95 1008.6
20260509095503 69 276 0.0 1.7 0.00 0.00 0.00 95 1008.5
20260509095003 69 279 0.9 5.2 0.00 0.00 0.00 95 1008.4
20260509094503 69 270 0.9 5.2 0.00 0.00 0.00 95 1008.4
20260509094003 69 170 0.9 4.3 0.00 0.00 0.00 95 1008.1
20260509093503 69 159 0.9 4.3 0.00 0.00 0.00 95 1007.7
20260509093003 69 158 0.9 4.3 0.00 0.00 0.00 95 1007.6
20260509092003 69 159 1.7 6.1 0.00 0.00 0.00 94 1007.4
20260509091503 69 153 1.7 5.2 0.00 0.00 0.00 94 1006.8
20260509091003 69 149 1.7 5.2 0.00 0.00 0.00 93 1006.8
20260509090502 69 148 1.7 6.1 0.00 0.00 0.00 93 1006.9
20260509090003 69 157 1.7 6.1 0.00 0.00 0.00 93 1007.4
20260509085503 69 161 1.7 6.1 0.00 0.00 0.00 93 1007.4
20260509085003 69 160 1.7 5.2 0.00 0.00 0.00 92 1007.6
20260509084003 69 159 1.7 5.2 0.00 0.00 0.00 92 1008.1
20260509083503 70 163 1.7 3.5 0.00 0.00 0.00 93 1008.5
20260509082503 70 160 0.9 3.5 0.00 0.00 0.00 92 1009.2
20260509081003 70 172 0.0 1.7 0.00 0.00 0.00 92 1009.6
20260509080004 70 170 0.0 1.7 0.00 0.00 0.00 92 1009.8
20260509075503 70 178 0.0 1.7 0.00 0.00 0.00 92 1009.9
20260509075003 70 181 0.0 1.7 0.00 0.00 0.00 92 1010.3
20260509074503 69 181 0.0 0.9 0.00 0.00 0.00 92 1010.2
20260509074003 69 0 0.0 0.0 0.00 0.00 0.00 92 1010.3
20260509073504 69 0 0.0 0.0 0.00 0.00 0.00 92 1010.6
20260509073003 69 0 0.0 0.0 0.00 0.00 0.00 92 1010.6
20260509072503 69 0 0.0 0.0 0.00 0.00 0.00 92 1010.9
20260509072003 69 0 0.0 0.0 0.00 0.00 0.00 92 1011.0
20260509071503 69 0 0.0 0.0 0.00 0.00 0.00 91 1011.0
20260509071004 69 181 0.0 0.9 0.00 0.00 0.00 91 1010.9
20260509070503 69 181 0.0 0.9 0.00 0.00 0.00 91 1010.7
20260509070004 69 181 0.0 0.9 0.00 0.00 0.00 90 1010.2
20260509065503 69 210 0.0 1.7 0.00 0.00 0.00 90 1009.7
20260509065003 70 215 0.0 1.7 0.00 0.00 0.00 90 1009.7
20260509064503 70 238 0.0 0.9 0.00 0.00 0.00 90 1009.8
20260509063503 70 224 0.0 1.7 0.00 0.00 0.00 90 1010.0
20260509063003 70 208 0.9 1.7 0.00 0.00 0.00 90 1010.0
20260509062503 70 204 0.0 1.7 0.00 0.00 0.00 90 1009.9
20260509062003 70 215 0.0 0.9 0.00 0.00 0.00 89 1010.1
20260509061504 70 0 0.0 0.0 0.00 0.00 0.00 89 1010.5
20260509060503 70 215 0.0 0.9 0.00 0.00 0.00 89 1010.7
20260509060004 71 187 0.9 2.6 0.00 0.00 0.00 89 1011.0
20260509055503 70 187 0.9 2.6 0.00 0.00 0.00 89 1010.7
20260509055003 70 189 0.9 2.6 0.00 0.00 0.00 89 1010.5
20260509054504 70 0 0.0 0.0 0.00 0.00 0.00 89 1011.1
20260509054003 70 0 0.0 0.0 0.00 0.00 0.00 88 1011.4
20260509053503 70 0 0.0 0.0 0.00 0.00 0.00 88 1011.5
20260509053004 70 0 0.0 0.0 0.00 0.00 0.00 88 1011.6
20260509052503 71 196 0.0 1.7 0.00 0.00 0.00 88 1011.1
20260509051504 71 196 0.0 0.9 0.00 0.00 0.00 87 1010.1
20260509051003 71 190 0.0 1.7 0.00 0.00 0.00 87 1010.4
20260509050504 71 184 0.9 4.3 0.00 0.00 0.00 87 1010.4
20260509045503 71 185 0.0 2.6 0.00 0.00 0.00 87 1009.9
20260509045003 71 183 0.0 2.6 0.00 0.00 0.00 86 1010.1
20260509044501 71 179 0.9 5.2 0.00 0.00 0.00 86 1009.9
20260509044001 72 178 1.7 5.2 0.00 0.00 0.00 86 1009.5
20260509043501 72 173 0.9 3.5 0.00 0.00 0.00 86 1009.6
20260509042501 72 0 0.0 0.0 0.00 0.00 0.00 86 1010.2
20260509042002 71 0 0.0 0.0 0.00 0.00 0.00 85 1010.5
20260509041501 71 0 0.0 0.0 0.00 0.00 0.00 85 1010.9
20260509041002 72 0 0.0 0.0 0.00 0.00 0.00 84 1011.0
20260509040501 72 0 0.0 0.0 0.00 0.00 0.00 84 1011.0
20260509040002 72 0 0.0 0.0 0.00 0.00 0.00 85 1011.0
20260509034002 72 171 0.0 0.9 0.00 0.00 0.00 84 1010.2
20260509033501 72 170 0.0 0.9 0.00 0.00 0.00 84 1010.1
20260509033002 72 171 0.0 0.9 0.00 0.00 0.00 84 1010.1
20260509032501 72 171 0.0 1.7 0.00 0.00 0.00 84 1010.2
20260509032002 71 171 0.0 1.7 0.00 0.00 0.00 84 1010.1
20260509031501 71 166 0.0 0.9 0.00 0.00 0.00 84 1010.0
20260509030502 71 146 0.0 1.7 0.00 0.00 0.00 83 1009.9
20260509030001 71 169 0.0 1.7 0.00 0.00 0.00 83 1009.8
20260509025501 72 172 0.0 1.7 0.00 0.00 0.00 83 1009.6
20260509025001 72 170 0.0 1.7 0.00 0.00 0.00 83 1009.6
20260509024501 72 168 0.0 0.9 0.00 0.00 0.00 83 1009.6
20260509024002 72 171 0.0 1.7 0.00 0.00 0.00 83 1009.5
20260509023501 72 169 0.0 1.7 0.00 0.00 0.00 83 1009.3
20260509023002 72 163 0.0 0.9 0.00 0.00 0.00 82 1009.3
20260509022501 72 168 0.0 2.6 0.00 0.00 0.00 82 1009.2
20260509022001 72 165 0.0 2.6 0.00 0.00 0.00 82 1009.1
20260509021502 72 161 0.0 2.6 0.00 0.00 0.00 82 1009.0
20260509021001 72 165 0.9 2.6 0.00 0.00 0.00 82 1009.1
20260509020502 73 169 0.9 2.6 0.00 0.00 0.00 82 1009.2
20260509020001 73 172 0.9 1.7 0.00 0.00 0.00 82 1009.1
20260509015502 73 170 0.9 1.7 0.00 0.00 0.00 82 1009.2
20260509014502 73 163 0.0 1.7 0.00 0.00 0.00 81 1009.2
20260509014001 73 178 0.9 2.6 0.00 0.00 0.00 81 1009.1
20260509013502 73 179 0.9 2.6 0.00 0.00 0.00 81 1009.0
20260509013001 73 193 0.9 3.5 0.00 0.00 0.00 81 1009.0
20260509012502 73 202 0.9 3.5 0.00 0.00 0.00 81 1009.0
20260509012002 73 196 0.9 2.6 0.00 0.00 0.00 80 1008.8
20260509011501 73 189 0.0 1.7 0.00 0.00 0.00 80 1008.8
20260509011002 73 188 0.0 1.7 0.00 0.00 0.00 80 1008.8
20260509010502 73 189 0.9 2.6 0.00 0.00 0.00 80 1008.6
20260509005502 73 175 0.9 2.6 0.00 0.00 0.00 80 1008.4
20260509005001 73 188 0.9 4.3 0.00 0.00 0.00 79 1008.5
20260509004002 74 173 0.9 5.2 0.00 0.00 0.00 79 1008.4
20260509003502 74 183 0.9 4.3 0.00 0.00 0.00 79 1008.4
20260509003002 74 193 1.7 4.3 0.00 0.00 0.00 78 1008.4
20260509002501 74 192 0.9 4.3 0.00 0.00 0.00 78 1008.4
20260509001501 74 173 0.9 4.3 0.00 0.00 0.00 77 1008.5
20260509001002 74 183 1.7 4.3 0.00 0.00 0.00 77 1008.5
20260509000501 74 187 1.7 6.1 0.00 0.00 0.00 76 1008.6
20260508235502 75 179 0.9 2.6 0.00 0.00 0.00 75 1008.8
20260508235001 75 160 0.9 2.6 0.00 0.00 0.00 74 1008.8
20260508234002 77 137 0.0 0.9 0.00 0.00 0.00 73 1008.9
20260508233001 78 201 0.0 1.7 0.00 0.00 0.00 72 1008.9
20260508232502 77 192 0.9 3.5 0.00 0.00 0.00 72 1008.9
20260508232002 77 185 0.9 3.5 0.00 0.00 0.00 72 1008.8
20260508231502 77 195 0.9 4.3 0.00 0.00 0.00 73 1008.8
20260508225501 76 173 1.7 4.3 0.00 0.00 0.00 72 1009.0
20260508224501 76 188 2.6 7.0 0.00 0.00 0.00 72 1009.0
20260508224002 76 183 2.6 7.8 0.00 0.00 0.00 73 1009.0
20260508223501 76 179 2.6 7.8 0.00 0.00 0.00 72 1009.0
20260508223002 76 184 2.6 7.8 0.00 0.00 0.00 73 1009.0
20260508222501 75 193 2.6 7.8 0.00 0.00 0.00 73 1009.0
20260508222002 76 208 1.7 6.1 0.00 0.00 0.00 72 1009.0
20260508221502 76 218 1.7 5.2 0.00 0.00 0.00 72 1009.0
20260508221002 76 202 2.6 7.8 0.00 0.00 0.00 72 1009.0
20260508220501 77 195 2.6 7.8 0.00 0.00 0.00 71 1008.9
20260508220002 77 191 2.6 7.8 0.00 0.00 0.00 72 1008.9
20260508215501 76 184 3.5 7.8 0.00 0.00 0.00 73 1008.8
20260508214502 76 175 1.7 6.1 0.00 0.00 0.00 74 1008.8
20260508214001 75 170 2.6 6.1 0.00 0.00 0.00 75 1008.6
20260508213502 74 171 2.6 6.1 0.00 0.00 0.00 79 1008.7
20260508213002 73 166 0.9 5.2 0.00 0.00 0.00 81 1008.8
20260508212002 72 114 0.9 1.7 0.00 0.00 0.00 82 1008.6
20260508211502 73 139 0.9 3.5 0.00 0.00 0.00 79 1009.6
20260508210502 74 183 1.7 7.0 0.00 0.00 0.00 77 1010.2
20260508210002 74 196 0.9 2.6 0.00 0.00 0.00 75 1009.9
20260508205501 75 212 0.9 3.5 0.00 0.00 0.00 74 1010.5
20260508204502 75 202 0.9 2.6 0.00 0.00 0.00 72 1010.8
20260508203502 75 218 0.9 3.5 0.00 0.00 0.00 71 1010.8
20260508203002 75 216 0.9 3.5 0.00 0.00 0.00 71 1010.9
20260508202502 76 223 0.9 3.5 0.00 0.00 0.00 71 1010.8
20260508202002 76 214 0.9 3.5 0.00 0.00 0.00 70 1010.8
20260508201502 76 211 0.9 4.3 0.00 0.00 0.00 69 1010.7
20260508201002 76 204 1.7 4.3 0.00 0.00 0.00 69 1010.8
20260508200002 77 191 1.7 6.1 0.00 0.00 0.00 69 1010.7
20260508195502 77 194 1.7 5.2 0.00 0.00 0.00 69 1010.7
20260508195002 77 179 1.7 6.1 0.00 0.00 0.00 70 1010.7
20260508194502 77 184 2.6 6.1 0.00 0.00 0.00 69 1010.9
20260508194003 77 197 2.6 9.6 0.00 0.00 0.00 68 1010.9
20260508193003 76 177 3.5 7.8 0.00 0.00 0.00 69 1011.0
20260508192502 77 183 3.5 7.0 0.00 0.00 0.00 68 1011.1
20260508192002 77 193 2.6 8.7 0.00 0.00 0.00 68 1011.1
20260508191503 77 179 2.6 8.7 0.00 0.00 0.00 68 1011.2
20260508191002 78 171 2.6 7.0 0.00 0.00 0.00 68 1011.3
20260508190002 78 177 3.5 9.6 0.00 0.00 0.00 66 1011.2
20260508185002 80 178 1.7 6.1 0.00 0.00 0.00 65 1011.2
20260508184502 80 178 1.7 4.3 0.00 0.00 0.00 65 1011.4
20260508184002 80 181 1.7 6.1 0.00 0.00 0.00 65 1011.4
20260508183502 80 185 1.7 6.1 0.00 0.00 0.00 65 1011.4
20260508183002 81 200 1.7 5.2 0.00 0.00 0.00 65 1011.4
20260508182002 80 186 2.6 6.1 0.00 0.00 0.00 64 1011.7
20260508181503 81 196 1.7 6.1 0.00 0.00 0.00 62 1011.7
20260508181002 81 202 1.7 6.1 0.00 0.00 0.00 63 1011.8
20260508180502 81 199 1.7 7.8 0.00 0.00 0.00 62 1011.8
20260508175502 80 221 1.7 4.3 0.00 0.00 0.00 63 1012.0
20260508175002 80 194 1.7 5.2 0.00 0.00 0.00 62 1012.1
20260508174502 80 189 1.7 5.2 0.00 0.00 0.00 63 1012.2
20260508174002 80 174 1.7 5.2 0.00 0.00 0.00 63 1012.4
20260508173502 80 154 0.9 5.2 0.00 0.00 0.00 65 1012.4
20260508173002 80 154 0.9 4.3 0.00 0.00 0.00 64 1012.3
20260508172503 79 184 1.7 4.3 0.00 0.00 0.00 66 1012.5
20260508171502 78 174 0.9 5.2 0.00 0.00 0.00 65 1012.7
20260508171002 78 190 1.7 4.3 0.00 0.00 0.00 65 1012.9
20260508170002 77 194 1.7 6.1 0.00 0.00 0.00 65 1013.2
20260508165502 76 199 1.7 5.2 0.00 0.00 0.00 67 1013.4
20260508165002 75 210 1.7 5.2 0.00 0.00 0.00 68 1013.5
20260508164002 74 181 2.6 6.1 0.00 0.00 0.00 68 1013.7
20260508163502 74 167 2.6 6.1 0.00 0.00 0.00 69 1013.7
20260508163003 74 174 1.7 7.8 0.00 0.00 0.00 68 1013.7
20260508162502 74 195 1.7 7.8 0.00 0.00 0.00 69 1013.8
20260508162002 73 193 1.7 5.2 0.00 0.00 0.00 69 1013.8
20260508161502 73 173 1.7 4.3 0.00 0.00 0.00 70 1013.9
20260508161002 73 176 1.7 5.2 0.00 0.00 0.00 68 1014.0
20260508160502 73 189 1.7 7.0 0.00 0.00 0.00 69 1013.8
20260508160002 73 184 2.6 7.0 0.00 0.00 0.00 69 1013.9
20260508155503 72 174 1.7 8.7 0.00 0.00 0.00 70 1014.0
20260508155003 72 179 1.7 8.7 0.00 0.00 0.00 71 1014.2
20260508154002 71 185 2.6 7.0 0.00 0.00 0.00 71 1014.3
20260508152503 71 199 1.7 5.2 0.00 0.00 0.00 71 1014.5
20260508152002 71 189 1.7 6.1 0.00 0.00 0.00 70 1014.5
20260508151503 71 189 1.7 6.1 0.00 0.00 0.00 70 1014.4
20260508151002 71 194 1.7 6.1 0.00 0.00 0.00 70 1014.5
20260508150503 71 179 1.7 6.1 0.00 0.00 0.00 70 1014.5
20260508150003 70 164 0.9 4.3 0.00 0.00 0.00 72 1014.5
20260508145003 70 184 0.9 5.2 0.00 0.00 0.00 72 1014.3
20260508144502 69 183 0.9 5.2 0.00 0.00 0.00 72 1014.2
20260508143502 68 181 1.7 5.2 0.00 0.00 0.00 74 1014.2
20260508143003 68 185 1.7 6.1 0.00 0.00 0.00 73 1014.4
20260508142502 68 172 0.9 6.1 0.00 0.00 0.00 73 1014.5
20260508142003 68 166 0.9 4.3 0.00 0.00 0.00 75 1014.5
20260508141503 68 162 1.7 4.3 0.00 0.00 0.00 75 1014.6
20260508141003 68 161 1.7 4.3 0.00 0.00 0.00 76 1014.8
20260508140503 68 166 1.7 5.2 0.00 0.00 0.00 76 1014.7
20260508140003 67 160 0.9 5.2 0.00 0.00 0.00 76 1014.8
20260508135502 67 144 0.9 2.6 0.00 0.00 0.00 78 1014.8
20260508135003 66 151 0.9 4.3 0.00 0.00 0.00 79 1014.6
20260508134502 66 149 0.9 4.3 0.00 0.00 0.00 80 1014.5
20260508134003 65 152 0.0 3.5 0.00 0.00 0.00 81 1014.4
20260508133503 64 172 0.9 3.5 0.00 0.00 0.00 83 1014.5
20260508132502 63 155 0.9 2.6 0.00 0.00 0.00 84 1014.6
20260508132003 63 170 0.9 2.6 0.00 0.00 0.00 85 1014.7
20260508131503 62 174 0.9 2.6 0.00 0.00 0.00 86 1014.7
20260508131002 62 169 0.0 2.6 0.00 0.00 0.00 89 1014.9
20260508130503 62 0 0.0 0.0 0.00 0.00 0.00 91 1014.9
20260508130003 61 0 0.0 0.0 0.00 0.00 0.00 92 1015.1